• In Uzbekistan
  • List of Countries
  • For 7 days
  • Water Temperature
  • Satellite Maps
  • Weather Map
  • Weather Widgets
  • user-avatar
    Login

    Hourly Weather San Juan

    Today, 23 July, Sunday

    Time Temperature Precipitation Wind Pressure Humidity
    00:00 +16°C° 0 mm 2 mps 700 mmHg 19%
    01:00 +15°C° 0 mm 2 mps 700 mmHg 19%
    02:00 +15°C° 0 mm 2 mps 700 mmHg 20%
    03:00 +15°C° 0 mm 2 mps 700 mmHg 21%
    04:00 +14°C° 0 mm 2 mps 700 mmHg 21%
    05:00 +14°C° 0 mm 2 mps 701 mmHg 22%
    06:00 +13°C° 0 mm 3 mps 701 mmHg 22%
    07:00 +13°C° 0 mm 3 mps 702 mmHg 22%
    08:00 +16°C° 0 mm 3 mps 703 mmHg 22%
    09:00 +17°C° 0 mm 4 mps 703 mmHg 21%
    10:00 +19°C° 0 mm 5 mps 704 mmHg 21%
    11:00 +19°C° 0 mm 6 mps 703 mmHg 24%
    12:00 +19°C° 0 mm 6 mps 703 mmHg 28%
    13:00 +18°C° 0 mm 7 mps 702 mmHg 31%
    14:00 +17°C° 0 mm 7 mps 702 mmHg 35%
    15:00 +16°C° 0 mm 7 mps 703 mmHg 39%
    16:00 +15°C° 0 mm 7 mps 703 mmHg 44%
    17:00 +14°C° 0 mm 6 mps 704 mmHg 45%
    18:00 +13°C° 0 mm 5 mps 704 mmHg 47%
    19:00 +12°C° 0 mm 5 mps 705 mmHg 48%
    20:00 +10°C° 0 mm 5 mps 706 mmHg 47%
    21:00 +10°C° 0 mm 4 mps 706 mmHg 45%
    22:00 +10°C° 0 mm 4 mps 707 mmHg 44%
    23:00 +8°C° 0 mm 4 mps 707 mmHg 43%

    Tomorrow, 24 July, Monday

    Time Temperature Precipitation Wind Pressure Humidity
    00:00 +8°C° 0 mm 4 mps 707 mmHg 43%
    01:00 +7°C° 0 mm 4 mps 707 mmHg 42%
    02:00 +7°C° 0 mm 4 mps 706 mmHg 42%
    03:00 +8°C° 0 mm 3 mps 706 mmHg 42%
    04:00 +7°C° 0 mm 3 mps 706 mmHg 43%
    05:00 +7°C° 0 mm 3 mps 706 mmHg 43%
    06:00 +7°C° 0 mm 2 mps 706 mmHg 43%
    07:00 +7°C° 0 mm 2 mps 707 mmHg 44%
    08:00 +9°C° 0 mm 2 mps 707 mmHg 40%
    09:00 +12°C° 0 mm 2 mps 707 mmHg 35%
    10:00 +14°C° 0 mm 2 mps 707 mmHg 31%
    11:00 +15°C° 0 mm 2 mps 706 mmHg 29%
    12:00 +16°C° 0 mm 3 mps 706 mmHg 27%
    13:00 +17°C° 0 mm 3 mps 705 mmHg 25%
    14:00 +17°C° 0 mm 3 mps 705 mmHg 27%
    15:00 +15°C° 0 mm 4 mps 705 mmHg 28%
    16:00 +15°C° 0 mm 4 mps 706 mmHg 30%
    17:00 +14°C° 0 mm 4 mps 706 mmHg 32%
    18:00 +13°C° 0 mm 3 mps 707 mmHg 35%
    19:00 +12°C° 0 mm 3 mps 708 mmHg 37%
    20:00 +11°C° 0 mm 3 mps 708 mmHg 37%
    21:00 +11°C° 0 mm 3 mps 708 mmHg 37%
    22:00 +11°C° 0 mm 3 mps 708 mmHg 36%
    23:00 +10°C° 0 mm 3 mps 708 mmHg 38%

    Day after tomorrow, 25 July, Tuesday

    Time Temperature Precipitation Wind Pressure Humidity
    00:00 +10°C° 0 mm 3 mps 708 mmHg 39%
    01:00 +9°C° 0 mm 3 mps 707 mmHg 40%
    02:00 +9°C° 0 mm 3 mps 707 mmHg 43%
    03:00 +9°C° 0 mm 3 mps 707 mmHg 45%
    04:00 +8°C° 0 mm 2 mps 706 mmHg 47%
    05:00 +8°C° 0 mm 2 mps 707 mmHg 48%
    06:00 +8°C° 0 mm 2 mps 707 mmHg 49%
    07:00 +8°C° 0 mm 2 mps 707 mmHg 50%
    08:00 +10°C° 0 mm 2 mps 707 mmHg 48%
    09:00 +13°C° 0 mm 2 mps 707 mmHg 45%
    10:00 +15°C° 0 mm 2 mps 707 mmHg 42%
    11:00 +16°C° 0 mm 2 mps 706 mmHg 41%
    12:00 +17°C° 0 mm 2 mps 706 mmHg 39%
    13:00 +18°C° 0 mm 2 mps 705 mmHg 38%
    14:00 +18°C° 0 mm 2 mps 705 mmHg 39%
    15:00 +18°C° 0 mm 3 mps 705 mmHg 40%
    16:00 +17°C° 0 mm 3 mps 705 mmHg 41%
    17:00 +16°C° 0 mm 3 mps 705 mmHg 45%
    18:00 +15°C° 0 mm 2 mps 706 mmHg 49%
    19:00 +14°C° 0 mm 2 mps 707 mmHg 53%
    20:00 +13°C° 0 mm 2 mps 707 mmHg 53%
    21:00 +13°C° 0 mm 2 mps 707 mmHg 53%
    22:00 +13°C° 0 mm 2 mps 707 mmHg 53%
    23:00 +12°C° 0 mm 2 mps 707 mmHg 53%

    26 July, Wednesday

    Time Temperature Precipitation Wind Pressure Humidity
    00:00 +12°C° 0 mm 2 mps 707 mmHg 53%
    01:00 +12°C° 0 mm 2 mps 706 mmHg 52%
    02:00 +12°C° 0 mm 2 mps 706 mmHg 51%
    03:00 +12°C° 0 mm 2 mps 706 mmHg 49%
    04:00 +12°C° 0 mm 2 mps 706 mmHg 48%
    05:00 +12°C° 0 mm 2 mps 706 mmHg 49%
    06:00 +12°C° 0 mm 2 mps 706 mmHg 50%
    07:00 +12°C° 0 mm 2 mps 706 mmHg 52%
    08:00 +14°C° 0 mm 2 mps 706 mmHg 47%
    09:00 +18°C° 0 mm 1 mps 706 mmHg 41%
    10:00 +20°C° 0 mm 1 mps 706 mmHg 36%
    11:00 +21°C° 0 mm 1 mps 706 mmHg 34%
    12:00 +22°C° 0 mm 1 mps 705 mmHg 31%
    13:00 +24°C° 0 mm 1 mps 704 mmHg 29%
    14:00 +24°C° 0 mm 2 mps 704 mmHg 30%
    15:00 +24°C° 0 mm 2 mps 704 mmHg 30%
    16:00 +24°C° 0 mm 2 mps 704 mmHg 31%
    17:00 +22°C° 0 mm 1 mps 704 mmHg 37%
    18:00 +20°C° 0 mm 1 mps 704 mmHg 43%
    19:00 +18°C° 0 mm 1 mps 705 mmHg 49%
    20:00 +18°C° 0 mm 1 mps 705 mmHg 50%
    21:00 +16°C° 0 mm 1 mps 704 mmHg 52%
    22:00 +16°C° 0 mm 1 mps 704 mmHg 53%
    23:00 +15°C° 0 mm 1 mps 704 mmHg 53%

    27 July, Thursday

    Time Temperature Precipitation Wind Pressure Humidity
    00:00 +15°C° 0 mm 1 mps 704 mmHg 52%
    01:00 +15°C° 0 mm 2 mps 704 mmHg 51%
    02:00 +15°C° 0 mm 2 mps 703 mmHg 50%
    03:00 +15°C° 0 mm 2 mps 703 mmHg 49%
    04:00 +15°C° 0 mm 2 mps 703 mmHg 47%
    05:00 +15°C° 0 mm 2 mps 703 mmHg 47%
    06:00 +15°C° 0 mm 2 mps 704 mmHg 47%
    07:00 +15°C° 0 mm 2 mps 704 mmHg 46%
    08:00 +17°C° 0 mm 2 mps 704 mmHg 41%
    09:00 +20°C° 0 mm 2 mps 704 mmHg 35%
    10:00 +24°C° 0 mm 1 mps 705 mmHg 30%
    11:00 +25°C° 0 mm 1 mps 704 mmHg 27%
    12:00 +26°C° 0 mm 1 mps 703 mmHg 25%
    13:00 +27°C° 0 mm 2 mps 703 mmHg 23%
    14:00 +27°C° 0 mm 2 mps 703 mmHg 24%
    15:00 +26°C° 0 mm 2 mps 703 mmHg 25%
    16:00 +26°C° 0 mm 2 mps 703 mmHg 26%
    17:00 +24°C° 0 mm 2 mps 703 mmHg 32%
    18:00 +21°C° 0 mm 2 mps 704 mmHg 39%
    19:00 +19°C° 0 mm 2 mps 704 mmHg 45%
    20:00 +19°C° 0 mm 2 mps 704 mmHg 46%
    21:00 +18°C° 0 mm 2 mps 705 mmHg 46%
    22:00 +18°C° 0 mm 2 mps 705 mmHg 47%
    23:00 +17°C° 0 mm 2 mps 705 mmHg 48%

    28 July, Friday

    Time Temperature Precipitation Wind Pressure Humidity
    00:00 +17°C° 0 mm 2 mps 705 mmHg 49%
    01:00 +16°C° 0 mm 2 mps 705 mmHg 50%
    02:00 +16°C° 0 mm 2 mps 705 mmHg 51%
    03:00 +15°C° 0 mm 2 mps 704 mmHg 53%
    04:00 +15°C° 0 mm 2 mps 704 mmHg 55%
    05:00 +15°C° 0 mm 2 mps 705 mmHg 58%
    06:00 +15°C° 0 mm 2 mps 705 mmHg 60%
    07:00 +14°C° 0 mm 3 mps 706 mmHg 63%
    08:00 +16°C° 0 mm 3 mps 706 mmHg 61%
    09:00 +18°C° 0 mm 3 mps 706 mmHg 59%
    10:00 +19°C° 0 mm 4 mps 706 mmHg 57%
    11:00 +20°C° 0 mm 4 mps 706 mmHg 57%
    12:00 +20°C° 0 mm 4 mps 705 mmHg 57%
    13:00 +20°C° 0 mm 4 mps 705 mmHg 57%
    14:00 +20°C° 0 mm 4 mps 705 mmHg 60%
    15:00 +20°C° 0 mm 4 mps 705 mmHg 64%
    16:00 +19°C° 0 mm 4 mps 705 mmHg 67%
    17:00 +18°C° 0 mm 4 mps 706 mmHg 72%
    18:00 +17°C° 0 mm 4 mps 706 mmHg 76%
    19:00 +17°C° 0 mm 3 mps 707 mmHg 81%
    20:00 +16°C° 0 mm 3 mps 707 mmHg 81%
    21:00 +15°C° 0 mm 4 mps 707 mmHg 82%
    22:00 +14°C° 0 mm 4 mps 707 mmHg 82%
    23:00 +14°C° 0 mm 4 mps 707 mmHg 81%
    Show more